Location: Paris
(48.6709°N, 2.3750°E)
Time: 18:42:40
(UTC+02:00)

CUBESAT XI-V - Pass Details

Date: 29 June 2022
Orbit: 667 x 690 km, 98.1° (Epoch: 08 August)

Event Time Altitude Azimuth Distance (km) Brightness Sun altitude
Exits shadow 02:07:28 - 116° (ESE) 2,580 ? -18.0°
Reaches altitude 10° 02:08:57 10° 106° (ESE) 2,110 ? -18.0°
Maximum altitude 02:12:13 20° 60° (ENE) 1,567 ? -18.0°
Drops below altitude 10° 02:15:29 10° 15° (NNE) 2,112 ? -17.9°
Sets 02:18:14 0° 358° (N) 3,028 ? -17.9°
